Location: Auckland
(36.8670°S, 174.7670°E)
Time: 20:01:58
(UTC+12:00)

NOSS 2-1 (E) - Pass Details

Date: 30 April 2019
Orbit: 471 x 1733 km, 63.3° (Epoch: 21 May)

Event Time Altitude Azimuth Distance (km) Brightness Sun altitude
Rises 19:31:44 0° 221° (SW) 4,856 8.7 -23.3°
Reaches altitude 10° 19:39:07 10° 185° (S) 3,561 7.5 -24.8°
Maximum altitude 19:40:46 11° 174° (S) 3,430 7.3 -25.2°
Drops below altitude 10° 19:42:21 10° 163° (SSE) 3,384 7.1 -25.5°
Enters shadow 19:43:34 - 155° (SSE) 3,406 7.1 -25.7°
